Regional Weather Roundup
Issued by NWS

Home | Current Version | Previous Version | Graphics & Text | Print | Product List | Glossary On
Versions: 1 2 3 4 5 6 7 8 9 10 11 12 13 14 15 16 17 18 19 20 21 22 23 24 25 26 27 28 29 30 31 32 33 34 35 36 37 38 39 40 41 42 43 44 45 46 47 48 49 50
000
ASUS45 KBOU 311607
RWRCO

WEATHER ROUNDUP FOR COLORADO
NATIONAL WEATHER SERVICE DENVER/BOULDER CO
900 AM MST SAT JAN 31 2015

NOTE: "FAIR" INDICATES FEW OR NO CLOUDS BELOW 12000 FEET WITH NO
SIGNIFICANT WEATHER AND/OR OBSTRUCTIONS TO VISIBILITY.

COZ001>005-013-030-031-311700-
...NORTHWEST COLORADO...

CITY           SKY/WX    TMP DP  RH WIND       PRES   REMARKS
CRAIG            N/A     32  30  92 W9        29.93S FOG     WCI  24
HAYDEN         CLOUDY    30  28  93 W8        29.91S WCI  23
MEEKER         LGT SNOW  33  30  88 CALM      29.92R FOG
MOUNT WERNER   NOT AVBL
STEAMBOAT SPGS CLOUDY    31  31  99 CALM      29.90S
WALDEN         CLOUDY    30  28  93 CALM      29.88S
$$

COZ006>008-011-311700-
...WEST CENTRAL VALLEYS...

CITY           SKY/WX    TMP DP  RH WIND       PRES   REMARKS
GRAND JUNCTION LGT RAIN  38  37  97 NW5       29.92R
MONTROSE       LGT RAIN  35  34  96 CALM      29.93R
EAGLE          LGT SNOW  34  34 100 CALM      29.91S VSB 1
RIFLE          LGT SNOW  34  32  92 CALM      29.92R FOG
DELTA          NOT AVBL
NUCLA          NOT AVBL
$$

COZ017>023-064>068-311700-
...SOUTHWEST COLORADO...

CITY           SKY/WX    TMP DP  RH WIND       PRES   REMARKS
DURANGO        CLOUDY    33  32  96 CALM      29.90R
CORTEZ         CLOUDY    34  33  96 CALM      29.92R
PAGOSA SPRINGS NOT AVBL
TELLURIDE      NOT AVBL
WOLF CREEK PAS SNOW      21  21 100 SW8       29.95F VSB<1/4 WCI  12
$$

COZ009-010-012-014-032>034-037-058>063-311700-
...CENTRAL COLORADO...

CITY           SKY/WX    TMP DP  RH WIND       PRES   REMARKS
ASPEN          LGT SNOW  32  31  96 N3        29.87S VSB 1
BUENA VISTA    NOT AVBL
COPPER MTN     SNOW      28  23  80 W10G20    29.91F VSB 1/4 WCI  19
BERTHOUD PASS  CLOUDY    19  14  79 NW16      29.91F VSB<1/4 WCI   5
COTTONWOOD PAS FOG       30  28  93 CALM      29.90R VSB 1/2
GUNNISON       CLOUDY    30  27  86 CALM      29.91R
KREMMLING      LGT SNOW  30  27  86 CALM      29.90F
LEADVILLE      CLOUDY    23  23 100 CALM      29.88F FOG
MONARCH PASS   FOG       23  23 100 MISG      30.02S VSB<1/4
SALIDA         NOT AVBL
SUNLIGHT       SNOW      28  28 100 CALM        N/A  VSB 1/4
WILKERSON PASS FOG      N/A N/A N/A SW7       29.92R VSB 1/4
$$

COZ069>075-311700-
...SAN LUIS VALLEY/SANGRE DE CRISTO MOUNTAINS...

CITY           SKY/WX    TMP DP  RH WIND       PRES   REMARKS
ALAMOSA        CLOUDY    30  29  96 SE3       29.90S FOG
LA VETA PASS   FOG       27  23  86 S8        29.89F VSB 1/2 WCI  18
SAGUACHE       CLOUDY    32  28  86 SE5       29.91S WCI  27
$$

COZ035-036-038>040-311700-
...NORTHERN COLORADO FRONT RANGE...

CITY           SKY/WX    TMP DP  RH WIND       PRES   REMARKS
DENVER INTL AP PTSUNNY   33  26  75 N7        29.88F WCI  27
DMNS CITY PARK   N/A     35  25  66 NW5       29.90R WCI  31
AURORA         PTSUNNY   32  27  81 N5        29.89F WCI  27
FRONT RANGE AP PTSUNNY   34  30  86 NW5       29.89F WCI  30
ERIE MUNI ARPT CLOUDY    34  31  86 CALM      29.90F
BOULDER MUN AP CLOUDY    34  27  75 CALM      29.90F
CENTENNIAL     CLOUDY    32  25  75 CALM      29.88F
BROOMFIELD     PTSUNNY   36  27  69 NW7       29.89F
FORT COLLINS   CLOUDY    34  28  80 CALM      29.93S
LONGMONT       CLOUDY    37  30  74 CALM      29.92F
$$

COZ041-046-047-076>085-087-088-311700-
...PIKES PEAK/PALMER DIVIDE AND SOUTHERN FOOTHILLS...

CITY           SKY/WX    TMP DP  RH WIND       PRES   REMARKS
COLO. SPRINGS  CLOUDY    35  30  82 CALM      29.89R
A. F. ACADEMY  CLOUDY    33  23  67 NW6       29.87S WCI  28
ELLICOTT       CLOUDY   N/A N/A N/A N8        29.87S
FALCON         CLOUDY    34  23  63 NW5       29.88S WCI  30
FORT CARSON    CLOUDY    37  26  65 N6        29.87R
LIMON          CLOUDY    32  27  81 NW8       29.88F WCI  25
MONUMENT HILL  CLOUDY    30  23  74 NW3       29.87S
TRINIDAD       CLOUDY    37  31  78 W7        29.89F
$$

COZ042>045-048>051-090-091-311700-
...NORTHEAST COLORADO...

CITY           SKY/WX    TMP DP  RH WIND       PRES   REMARKS
GREELEY ARPT   CLOUDY    36  25  64 CALM      29.92S
AKRON          FOG       32  32 100 NW8       29.89F VSB 1/4 WCI  25
BURLINGTON     FOG       34  32  92 N13       29.88F VSB 1/2 WCI  25
WRAY           NOT AVBL
STERLING       CLOUDY    34  32  93 NE6       29.91S WCI  29
HOLYOKE        NOT AVBL
FORT MORGAN    NOT AVBL
$$

COZ086-089-092>099-311700-
...SOUTHEAST COLORADO...

CITY           SKY/WX    TMP DP  RH WIND       PRES   REMARKS
PUEBLO         CLOUDY    35  35 100 CALM      29.89S FOG
LA JUNTA       PTSUNNY   40  35  83 N3        29.89S
LAMAR          CLOUDY    38  37  97 MISG      29.87F
SPRINGFIELD      N/A     35  33  92 SW14      29.89S WCI  26
$$



USA.gov is the U.S. government's official web portal to all federal, state and local government web resources and services.